カタログに戻る

STARLINK-31402

運用中通信VLEO
NORAD 59320·PAYLOAD·🇺🇸 United States

打ち上げ Mar 25, 2024 から Cape Canaveral Space Force Station

Loading…

次のパス (今後24時間)

TLE

最新Source: CelesTrak SupGP

元期: Sep 15, 2026, 02:59 UTC

1 59320C 24057A   26258.12479167  .00167980  00000+0  39567-2 0  2587
2 59320  42.9957 142.7600 0015415 219.9595  55.1417 15.40873099    13

AllMySatでSTARLINK-31402をリアルタイム追跡

Download on the App Store